Temp
12 12 12 12 11 11 11 11 11 11 10 10 10 10 10 9 9 9 9 9 9 9 9 9 9 9 9 9 8 8 8 8 7 7 7 7 7 7 7 6 6 6 6 6 5 5 5 4 4 3 3 3 3 2 2 2 2 2 2 1 1 1 1 1 1 1 1 1 1
12 12 12 12 12 12 11 11 11 11 11 11 10 10 10 10 10 9 9 9 9 9 9 9 9 9 9 9 9 8 8 8 8 7 7 7 7 7 7 6 6 6 6 6 5 5 5 4 4 3 3 3 3 2 2 2 2 2 2 1 1 1 1 1 1 1 1 1 1
13 13 12 12 12 12 12 12 12 12 12 11 11 11 10 10 10 10 10 10 10 9 9 9 9 9 9 9 9 9 8 8 8 8 7 7 7 7 6 6 6 6 6 6 5 5 5 4 4 3 3 3 3 2 2 2 2 2 1 1 1 1 1 1 1 1 1 0 0
13 13 13 12 12 12 12 12 12 12 12 12 12 11 11 11 10 10 10 10 10 10 10 10 10 10 10 9 9 9 9 8 8 8 7 7 7 7 6 6 6 6 6 6 5 5 5 4 4 3 3 3 3 2 2 2 2 2 1 1 1 1 1 1 1 1 0 0 0
13 13 13 13 12 12 12 12 12 12 12 12 12 12 12 12 11 11 11 11 11 11 10 10 10 10 10 9 9 9 9 8 8 8 7 7 7 7 6 6 6 6 6 5 5 5 5 4 4 3 3 3 3 3 3 2 2 2 1 1 1 1 1 1 1 0 0 0 0
13 13 13 13 13 12 12 12 12 12 12 12 12 12 12 12 12 11 11 11 11 11 11 10 10 10 9 9 9 9 9 8 8 8 7 7 7 7 6 6 6 6 5 5 5 5 4 4 3 3 3 3 2 2 2 2 2 2 1 1 1 1 1 1 1 0 0 0 0
13 13 13 13 13 13 12 12 12 12 12 12 12 12 12 12 12 11 11 11 11 11 11 10 10 10 10 9 9 9 9 8 8 8 8 7 7 7 7 6 6 6 5 5 5 4 4 4 3 3 3 2 2 2 2 2 2 2 1 1 1 1 1 1 0 0 0 0 0
13 13 13 13 13 13 13 12 12 12 12 12 12 12 12 12 11 11 11 11 11 11 11 10 10 10 10 9 9 9 9 8 8 8 8 7 7 7 7 6 6 6 5 5 5 4 4 3 3 3 3 2 2 2 2 2 2 2 1 1 1 1 1 1 0 0 0 0 0
13 13 13 13 13 13 13 13 12 12 12 12 12 12 12 12 11 11 11 11 11 11 11 11 11 10 10 10 9 9 9 9 8 8 8 7 7 7 7 6 6 5 5 5 4 4 4 3 3 3 3 2 2 2 2 2 2 2 1 1 1 1 1 1 0 0 0 0 -0
13 14 13 13 13 13 13 13 13 12 12 12 12 12 12 12 11 11 11 11 11 11 11 11 11 10 10 10 10 10 9 9 8 8 8 8 7 7 7 6 6 6 5 5 5 4 4 3 3 3 3 2 2 2 2 2 2 2 1 1 1 1 1 1 0 0 0 -0 -0
13 13 13 13 13 13 13 13 13 13 12 12 12 12 12 12 11 11 11 11 11 11 11 11 11 10 10 10 10 10 9 9 9 8 8 8 7 7 7 6 6 6 5 5 4 4 3 3 3 3 3 2 2 2 2 2 2 1 1 1 1 1 1 1 1 0 0 -0 -0
13 13 13 13 13 13 13 13 13 13 12 12 12 12 12 12 11 11 11 11 11 11 11 11 10 10 10 10 10 10 9 9 9 8 8 8 8 7 7 7 6 6 5 5 4 4 3 3 3 3 3 2 2 2 2 2 1 1 1 1 1 1 1 1 1 0 0 -0 -0
13 13 13 13 13 13 13 13 13 12 12 12 12 12 12 11 11 11 11 10 10 11 10 10 10 10 10 10 9 9 9 9 9 8 8 8 8 8 7 7 6 6 6 5 5 4 3 3 3 3 3 2 2 2 2 2 1 1 1 1 1 1 0 1 1 1 0 0 -0
13 13 13 13 13 13 13 12 12 12 12 12 12 12 11 11 11 10 10 10 10 10 10 10 10 10 9 9 9 9 9 8 8 8 8 8 8 8 7 7 7 6 6 5 5 4 4 3 3 3 3 2 2 2 2 2 1 1 1 1 1 1 0 1 1 0 0 0 -0
13 13 13 13 13 12 12 12 12 12 12 12 12 11 11 11 11 10 10 10 10 10 10 10 10 9 9 9 9 9 8 8 8 8 8 8 8 8 7 7 7 6 6 5 5 4 4 4 3 3 3 2 2 2 2 2 1 1 1 1 1 1 1 1 1 0 0 -0 -0
13 13 13 13 12 12 12 12 12 12 12 12 12 11 11 11 11 10 10 10 10 10 10 9 9 9 9 9 9 9 8 8 8 8 8 8 8 8 8 7 7 7 6 6 5 5 4 4 4 3 3 2 2 2 2 1 1 1 1 1 1 1 1 1 1 0 0 -0 -0
13 13 13 13 12 12 12 12 12 12 12 12 12 12 11 11 11 10 10 10 10 10 10 10 10 9 9 9 9 9 9 9 8 8 8 8 8 8 8 7 7 7 6 6 6 5 5 4 4 3 3 2 2 2 2 1 1 1 1 1 1 1 1 0 0 0 0 -0 -0
13 13 13 13 12 12 12 12 12 12 12 12 12 12 11 11 11 11 10 10 10 10 10 10 10 10 10 9 9 9 9 9 9 8 8 8 8 8 7 7 7 7 6 6 6 5 5 5 4 4 3 2 2 2 2 1 1 1 1 1 0 0 0 0 0 0 0 -0 -0
12 13 13 13 13 13 12 12 12 12 12 12 11 11 11 11 11 11 11 11 10 10 10 10 10 10 10 10 10 9 9 9 9 9 8 8 8 8 7 7 7 7 6 6 6 5 5 5 4 4 3 3 2 2 2 1 1 1 1 0 0 0 0 0 0 0 -0 -0 -0
11 12 12 13 13 13 13 12 12 12 12 12 11 11 11 11 11 11 11 11 11 10 10 10 10 10 10 10 10 10 9 9 9 9 9 8 8 8 7 7 7 7 6 6 5 5 5 4 4 4 3 3 2 2 2 1 1 1 0 0 -0 -0 -0 -0 -0 -0 -0 -0 -0
10 11 11 12 12 12 13 13 12 12 12 12 11 11 11 11 11 11 11 11 10 10 10 10 10 10 10 10 10 10 10 9 9 9 9 9 8 8 8 7 7 6 6 6 5 5 5 4 4 3 3 3 2 2 2 1 1 0 0 -0 -0 -0 -0 -0 -1 -1 -1 -0 -0
10 10 10 11 11 12 12 12 12 12 12 12 12 11 11 11 11 11 11 11 11 10 10 10 10 10 10 10 10 10 10 10 9 9 9 9 8 8 8 7 7 6 6 5 5 5 5 4 4 3 3 2 2 2 1 1 1 0 -0 -0 -1 -1 -1 -1 -1 -1 -1 -1 -1
10 10 10 10 10 10 11 11 12 12 12 12 12 12 11 11 11 11 11 11 11 11 11 10 10 10 10 10 10 10 10 9 9 9 9 9 9 8 8 7 6 6 6 5 5 5 4 4 4 3 3 2 2 1 1 1 0 -0 -0 -1 -1 -1 -1 -1 -1 -1 -1 -1 -1
9 9 9 9 9 9 9 10 10 11 11 12 12 12 12 12 12 11 11 11 11 11 11 11 10 10 10 10 9 9 9 9 9 9 9 9 9 8 8 7 6 6 5 5 5 5 4 4 3 3 2 2 1 1 1 1 0 -0 -0 -1 -1 -1 -1 -1 -1 -1 -1 -1 -1
9 9 9 9 9 9 9 9 9 9 10 10 11 11 11 11 11 11 11 10 10 10 10 10 9 9 9 8 8 8 8 8 8 8 9 9 8 8 7 6 6 5 5 5 5 4 4 3 2 2 2 1 1 1 1 0 0 -0 -0 -1 -1 -1 -1 -2 -2 -2 -2 -2 -2
9 9 9 9 9 8 8 8 8 8 9 9 9 9 9 10 10 9 9 9 9 9 8 8 8 7 7 7 7 7 7 7 7 7 7 8 8 7 7 6 6 5 5 5 4 4 3 3 3 2 2 2 1 1 1 0 0 0 -0 -1 -1 -1 -2 -2 -2 -2 -2 -2 -2
8 8 9 9 8 8 8 8 8 8 8 8 8 8 8 8 8 7 7 7 7 7 7 7 6 6 6 6 5 5 6 6 6 6 6 7 7 7 6 6 5 5 5 4 4 4 3 3 3 3 3 2 2 2 1 1 0 0 -0 -1 -1 -1 -2 -2 -2 -2 -2 -2 -2
8 8 8 8 8 8 8 8 8 7 7 7 7 7 7 7 7 7 6 6 6 6 6 6 6 5 5 5 5 5 5 5 5 5 6 6 6 6 6 6 5 5 5 4 4 3 3 3 3 3 3 3 3 3 2 2 1 0 -0 -1 -1 -2 -2 -2 -2 -2 -2 -2 -2
8 8 8 7 7 8 8 8 7 7 7 7 7 7 6 6 6 6 6 6 6 6 5 5 5 5 4 4 4 4 4 4 4 5 5 5 5 5 5 5 5 5 5 4 3 3 3 3 3 3 3 3 3 3 3 2 2 1 0 -1 -1 -2 -2 -2 -2 -2 -2 -2 -2
8 8 7 7 7 7 7 7 7 7 7 7 6 6 6 6 6 6 6 6 5 5 5 5 4 4 4 4 4 4 4 4 4 4 4 5 5 5 5 5 5 5 5 4 3 3 3 3 3 3 3 3 3 3 3 3 2 2 1 -0 -1 -1 -2 -2 -2 -2 -2 -2 -2
8 8 7 7 7 7 7 7 7 7 6 6 6 6 6 6 5 5 5 5 5 5 5 5 4 4 4 4 4 4 4 5 5 4 4 4 4 5 5 5 5 5 4 4 3 3 3 3 3 3 3 3 3 3 3 3 2 2 2 1 0 -1 -1 -2 -2 -2 -2 -2 -2
8 7 7 7 7 7 7 7 7 6 6 6 6 5 5 5 5 5 5 5 5 5 4 4 4 4 4 4 4 5 5 5 5 4 4 4 4 4 5 5 5 5 4 4 3 3 3 3 3 3 3 3 3 3 3 3 2 2 2 2 1 0 -0 -1 -1 -2 -2 -2 -2
7 7 7 6 6 6 6 6 6 6 6 6 5 5 5 5 5 5 5 5 4 4 4 4 4 4 4 4 4 4 4 4 4 4 4 4 4 4 5 5 4 4 4 4 3 3 3 3 3 3 3 3 3 3 3 3 2 2 2 2 1 1 0 -0 -1 -1 -1 -2 -2
6 6 6 6 6 6 6 6 6 6 5 5 5 5 5 5 5 5 5 4 4 4 4 4 4 4 4 4 4 4 4 4 4 4 4 4 4 4 4 4 4 4 4 4 3 3 3 3 3 3 3 3 3 3 3 3 2 2 2 2 2 1 1 0 -1 -1 -1 -1 -2
6 6 6 6 6 6 6 6 6 5 5 5 5 5 5 5 4 4 4 4 4 4 4 4 4 4 4 4 4 3 3 3 4 4 4 4 4 4 4 4 4 4 4 4 3 3 3 3 3 3 3 3 3 3 3 2 2 2 2 2 1 1 1 0 -0 -1 -1 -1 -1
6 6 5 5 5 5 5 5 5 5 5 5 5 5 5 5 5 4 4 4 4 4 4 4 4 4 4 4 4 3 3 3 4 4 4 4 4 4 4 4 4 4 4 4 3 3 3 3 3 3 3 3 3 3 2 2 2 2 1 1 1 1 1 1 0 -0 -1 -1 -1
5 5 5 5 5 5 5 5 5 5 5 5 5 5 5 4 4 4 4 4 4 4 4 4 4 4 4 4 4 4 4 4 4 4 4 4 4 4 4 4 4 4 4 3 3 3 3 3 3 3 3 3 3 2 2 2 2 1 1 1 1 1 1 1 0 0 -0 -1 -1
5 5 5 5 5 5 5 5 4 4 4 4 4 4 4 4 4 4 4 4 4 4 4 4 4 4 4 4 4 4 4 4 4 4 4 4 4 4 4 3 3 4 3 3 3 3 3 3 3 3 3 3 2 2 2 2 1 1 1 1 1 1 1 0 0 0 -0 -1 -1
4 4 4 4 4 4 4 4 4 4 4 4 4 4 4 4 4 4 4 4 4 4 4 4 4 4 4 4 4 4 4 4 4 4 4 4 4 4 3 3 3 3 3 3 3 3 3 3 3 3 2 2 2 2 2 2 1 1 1 1 1 0 0 0 0 -0 -0 -1 -1
4 4 4 4 4 4 4 4 4 4 4 4 4 4 4 4 4 4 4 4 4 4 4 4 4 4 4 4 4 4 4 4 4 4 4 4 4 3 3 3 3 3 3 3 3 2 2 2 2 2 2 2 2 2 2 1 1 1 1 1 0 0 0 -0 -0 -0 -0 -1 -1
4 4 4 4 4 4 4 4 4 4 4 4 4 4 4 4 4 4 4 4 4 4 4 4 4 4 4 4 4 4 4 4 4 4 4 3 3 3 3 3 3 3 3 2 2 2 2 2 2 2 2 2 2 2 1 1 1 1 1 0 0 0 -0 -0 -0 -1 -1 -1 -1
Height
796 796 795 794 793 793 792 791 790 790 789 788 788 787 787 786 786 785 784 784 784 783 782 782 781 781 781 781 781 781 780 780 780 780 780 780 779 779 779 779 780 780 780 780 780 780 781 781 781 782 781 781 781 781 781 781 782 782 782 782 782 782 783 783 783 783 783 783 784
796 795 794 793 792 791 791 790 789 788 787 787 786 786 785 785 784 783 783 782 782 781 781 780 780 779 779 779 779 778 778 778 778 777 777 777 777 777 777 777 777 777 777 777 778 778 778 779 779 779 779 779 779 779 778 778 779 779 779 779 779 780 781 780 780 780 780 781 781
794 794 793 792 791 790 789 788 787 787 786 785 785 784 784 783 782 782 781 781 780 780 779 778 778 777 777 777 776 776 776 776 776 775 775 775 775 775 775 775 775 775 775 775 775 775 776 776 776 776 776 776 776 776 775 775 776 776 776 776 776 777 777 777 776 777 778 778 778
793 792 791 791 790 789 788 787 786 786 785 784 783 783 782 781 781 780 779 779 778 778 777 776 776 776 775 775 775 774 774 774 773 773 773 772 772 772 772 772 772 772 772 772 772 772 773 773 774 774 773 773 773 772 772 772 773 773 773 773 773 774 774 774 774 774 775 775 775
792 791 790 789 788 787 786 786 785 784 783 783 782 781 780 780 779 778 778 777 776 776 775 775 774 774 773 773 773 772 772 771 771 771 771 770 770 770 770 770 770 769 769 770 770 770 770 771 771 771 771 770 770 769 769 770 770 770 770 770 771 771 771 771 771 771 771 771 772
790 789 789 788 787 786 785 784 783 783 782 781 781 780 779 778 778 777 776 776 775 774 774 773 773 772 772 771 771 770 770 769 769 769 768 768 767 767 767 767 767 767 767 767 767 767 768 768 769 769 768 768 767 766 766 767 768 768 767 767 767 767 767 767 767 768 768 769 769
788 788 787 786 785 784 784 783 782 781 781 780 779 778 777 777 776 776 775 774 773 772 772 771 771 770 770 769 769 768 768 767 767 766 766 766 765 765 764 764 764 764 764 764 764 765 765 766 766 766 766 766 765 764 764 764 765 765 765 764 764 764 764 764 764 765 765 765 765
787 786 785 785 784 783 782 781 781 780 779 778 777 776 776 775 775 774 773 772 772 771 771 770 769 769 768 768 767 766 766 765 765 764 764 763 763 762 762 761 761 761 761 761 762 762 763 763 764 763 763 762 762 761 761 761 762 762 761 761 761 761 761 761 761 762 762 762 762
785 784 783 783 782 781 781 780 779 778 777 776 776 775 775 774 773 772 772 771 770 770 769 768 767 767 766 766 765 764 764 763 763 762 762 761 761 760 760 759 759 759 759 759 759 760 760 761 761 760 760 759 759 758 758 759 759 759 758 758 758 758 759 759 759 759 759 759 759
783 782 782 781 780 780 779 778 777 777 776 775 774 774 773 772 772 771 770 770 769 768 767 766 766 766 765 764 763 762 762 761 761 761 760 759 759 758 757 757 757 756 756 756 757 757 758 758 758 757 756 756 756 755 756 756 756 756 755 755 756 756 756 756 756 756 756 756 756
781 781 780 779 779 778 777 776 776 775 775 774 773 772 771 771 770 770 769 768 767 766 766 765 765 764 763 762 761 761 761 760 759 759 758 757 757 756 756 755 755 754 754 754 755 755 756 755 755 754 753 753 753 753 753 753 754 753 753 752 753 753 753 753 753 753 753 753 753
780 779 778 777 777 776 776 775 774 774 773 772 771 771 770 769 769 768 767 766 766 765 764 764 763 762 761 761 760 760 759 758 758 757 756 756 755 754 754 753 753 752 752 752 752 753 753 752 751 751 750 750 750 750 750 751 751 751 750 750 750 750 750 749 750 751 751 750 750
778 777 776 776 775 774 773 773 772 772 771 771 770 769 769 768 767 766 766 765 764 763 762 762 761 761 760 759 759 758 757 757 756 756 755 754 753 752 752 751 751 750 750 750 750 750 750 749 748 748 747 747 747 747 747 747 748 747 747 747 747 747 746 746 746 747 748 748 747
776 775 775 774 773 772 771 771 770 770 769 769 768 767 767 766 766 765 764 763 762 761 761 760 760 759 758 757 757 756 756 755 755 754 753 752 751 751 750 749 749 748 748 747 747 747 747 746 745 745 744 744 744 744 744 745 744 744 744 744 744 743 743 743 743 744 745 745 744
774 773 773 772 771 770 769 769 768 767 767 766 766 766 765 764 764 763 762 761 761 760 759 758 757 757 756 756 755 755 754 753 753 752 751 750 749 749 748 747 746 746 746 745 745 744 744 743 742 742 742 741 741 741 741 741 741 741 741 740 740 740 740 740 740 741 741 741 741
772 771 771 770 769 768 767 767 766 765 765 764 764 763 763 762 762 761 760 759 759 758 757 756 756 755 754 754 753 752 752 751 751 750 749 748 747 746 746 745 745 744 743 743 742 741 741 740 740 739 739 738 738 738 738 738 738 737 737 737 736 736 736 736 737 738 738 738 738
771 770 769 768 767 766 766 765 764 763 762 762 761 761 761 760 760 759 758 757 757 756 755 754 754 753 752 751 751 751 750 749 748 747 746 746 745 744 744 743 742 741 741 741 740 739 738 737 737 736 736 736 735 735 735 735 735 734 734 733 733 733 733 733 734 734 735 735 734
769 768 767 766 765 764 764 763 762 761 761 760 759 759 758 758 757 756 756 756 755 754 753 752 751 751 750 749 749 748 747 746 746 745 744 743 743 742 741 741 740 739 739 738 737 736 735 735 734 734 733 733 732 732 731 731 731 731 730 730 730 730 730 730 730 731 731 731 731
768 766 766 765 763 762 761 761 760 759 759 758 757 757 756 756 755 754 754 753 752 752 751 750 749 749 748 747 746 746 745 744 743 742 742 741 740 740 739 738 737 736 736 735 734 733 732 732 731 731 731 730 729 729 728 728 727 727 727 727 726 726 726 726 727 727 727 728 727
766 765 764 763 762 761 760 759 758 757 757 756 756 755 754 753 753 752 751 751 750 750 749 748 747 746 745 745 744 743 742 742 741 740 739 738 738 737 736 735 735 734 733 732 731 731 730 729 729 728 727 727 726 726 725 725 724 724 723 723 723 723 723 723 723 724 724 724 724
764 763 762 761 760 759 758 757 756 756 755 754 754 753 752 751 751 750 749 748 748 747 746 745 744 743 742 742 741 740 739 739 738 737 736 735 735 734 733 733 732 731 730 730 729 728 727 726 726 725 725 724 723 722 722 721 721 721 720 720 720 720 720 720 720 720 720 721 721
762 761 761 760 759 758 756 756 755 754 753 752 751 751 750 749 748 747 746 746 745 744 744 743 742 741 740 739 738 737 736 736 735 734 733 732 731 731 730 730 729 728 727 726 726 725 724 723 723 722 721 721 720 719 719 718 718 717 717 717 716 716 716 716 717 717 717 717 717
760 759 758 757 756 756 755 754 753 752 751 750 749 748 747 746 746 745 744 743 742 741 741 740 739 738 737 736 735 734 733 732 731 731 730 729 728 727 727 727 726 725 724 723 723 722 721 720 720 719 718 718 717 716 716 716 715 715 714 714 713 713 713 713 713 713 714 714 714
759 757 756 755 754 753 752 752 751 750 749 748 747 746 745 744 743 742 741 741 740 739 738 737 736 735 734 733 732 731 730 729 728 727 726 726 725 724 723 723 722 722 721 720 720 719 719 718 716 716 715 714 714 713 712 712 712 711 711 711 710 710 710 710 710 710 710 710 711
757 756 754 753 752 751 750 750 749 747 746 746 745 744 742 741 741 740 739 737 736 736 735 734 733 732 731 730 729 728 727 726 725 723 722 722 721 721 720 719 719 718 718 717 717 716 716 716 714 713 712 711 710 710 709 709 708 708 707 707 707 707 707 706 707 707 707 707 707
755 754 752 751 750 749 748 747 746 745 744 743 742 741 740 739 738 737 736 735 734 733 732 731 730 729 729 728 726 725 724 723 721 721 719 719 718 717 717 716 715 715 714 714 714 714 714 713 713 712 711 709 708 707 706 705 704 704 704 704 704 704 703 703 703 703 703 703 703
753 752 751 749 748 747 746 745 744 743 742 741 740 739 738 737 736 735 734 732 731 730 730 729 728 727 726 725 724 722 721 720 719 718 717 716 715 714 713 713 712 711 711 711 711 711 711 711 710 710 709 708 706 705 703 701 701 700 700 700 700 700 700 700 700 700 700 700 700
752 750 749 748 746 745 744 743 742 741 740 739 738 737 736 735 734 733 731 730 729 728 727 726 725 725 724 722 721 720 718 717 716 716 715 714 713 711 711 710 709 708 708 708 708 708 708 708 707 707 706 706 704 703 701 699 698 696 696 696 696 696 696 696 696 696 696 697 697
750 749 747 746 745 743 742 741 739 738 737 736 736 735 733 732 731 730 728 727 726 725 724 723 722 722 721 720 718 717 716 715 714 713 713 712 711 709 708 707 706 705 705 705 705 705 705 705 704 704 703 703 702 700 699 697 696 694 693 692 691 691 691 692 692 693 693 694 694
749 747 746 744 743 741 740 739 737 736 736 735 733 732 731 730 728 727 726 725 723 722 721 721 719 718 717 716 716 715 713 712 711 711 710 709 708 706 705 704 703 702 702 702 702 702 702 702 701 701 700 700 699 697 696 694 693 692 690 689 688 688 688 688 689 689 690 690 691
747 746 745 743 741 740 738 737 736 735 734 733 731 730 729 727 726 724 723 722 721 719 718 717 716 715 713 712 712 711 710 709 708 708 707 706 705 704 702 701 701 700 699 700 700 699 699 699 698 697 697 696 696 695 693 691 690 689 688 686 685 684 684 685 685 686 686 687 687
746 745 743 742 740 738 737 736 734 733 732 731 729 728 726 725 723 722 721 720 719 717 716 715 713 711 710 708 707 706 706 705 705 704 704 703 702 701 700 699 698 697 696 697 697 696 696 696 695 694 694 693 692 691 690 688 687 686 685 683 682 681 681 681 681 682 682 683 684
745 744 742 741 739 737 735 734 732 731 730 729 727 726 724 723 721 720 719 718 717 716 714 712 711 709 708 706 705 704 703 702 701 701 701 701 700 699 697 696 695 694 694 694 694 694 693 693 692 691 691 690 689 688 686 685 683 682 681 680 680 679 678 678 678 678 679 679 680
744 742 741 739 737 736 734 732 731 730 728 726 725 723 722 721 719 718 716 716 715 713 712 710 709 707 706 704 703 702 701 700 699 699 698 698 697 696 695 693 692 692 691 691 691 691 691 690 689 688 688 687 686 685 683 681 680 679 678 677 676 676 676 675 674 675 675 676 676
742 741 739 738 736 734 733 731 729 728 726 725 723 721 720 719 718 716 715 713 712 711 709 708 706 705 703 702 701 700 699 697 696 696 696 695 694 693 692 691 689 689 689 689 689 688 688 687 686 685 685 684 683 681 680 678 677 676 675 674 673 673 673 672 672 671 672 672 673
741 740 738 736 735 733 732 730 728 727 725 723 721 720 718 717 716 714 713 712 710 709 707 705 704 702 701 700 698 697 696 695 694 693 693 693 692 691 689 688 686 686 686 686 686 685 685 684 683 682 682 681 679 678 676 675 674 673 672 671 671 670 670 670 669 669 669 669 670
740 739 737 736 734 732 731 729 727 725 723 722 720 718 717 715 713 712 711 710 708 706 704 703 701 700 698 697 696 695 694 693 692 691 691 690 690 688 687 685 684 683 683 683 683 682 682 681 681 680 679 678 676 675 673 672 671 670 669 668 667 667 667 667 667 666 666 666 666
739 738 736 734 732 731 729 727 726 724 722 720 718 716 715 713 711 710 708 708 706 704 702 701 699 697 696 695 694 692 691 691 691 690 688 687 687 686 685 683 681 680 680 680 680 680 679 678 678 677 676 675 674 672 671 669 668 667 666 665 664 664 664 664 664 664 663 663 663
737 736 735 733 731 729 728 726 724 722 721 718 716 715 713 711 710 708 706 706 704 702 701 698 696 695 694 693 691 690 689 688 688 687 686 685 684 683 682 681 679 678 677 677 677 677 676 676 675 674 674 673 671 670 668 667 665 664 663 662 662 661 661 661 661 661 661 661 661
736 734 733 731 730 728 726 724 722 721 719 717 715 713 711 710 708 706 705 703 702 700 698 696 695 693 691 691 690 688 687 686 685 685 684 683 681 681 680 679 677 676 675 675 674 674 673 673 672 671 671 670 669 667 666 665 663 662 661 660 660 659 658 658 658 658 658 658 658
734 733 731 730 728 727 725 723 721 719 717 716 714 712 710 708 706 705 703 701 700 698 696 695 692 691 690 688 687 686 685 683 682 681 681 680 679 678 677 676 675 673 672 672 671 671 671 670 669 669 668 667 666 665 664 662 661 659 658 657 657 657 656 656 656 656 656 656 656
Wind_Speed
15 15 15 15 16 17 19 21 22 23 25 26 27 27 28 28 29 29 29 29 29 30 31 31 31 32 31 31 31 31 31 32 32 32 32 32 33 33 34 35 35 36 37 37 38 37 37 37 36 36 35 35 36 36 36 36 35 34 34 34 34 34 34 35 35 36 36 36 36
16 16 16 16 16 16 17 18 20 21 22 22 23 24 25 26 27 28 28 28 29 29 30 30 31 31 31 31 31 31 31 32 32 32 32 32 33 33 33 34 35 35 36 37 37 37 36 36 36 35 35 35 35 35 36 36 36 35 35 35 35 34 33 34 35 36 37 37 37
18 18 17 17 17 17 17 18 19 19 20 20 20 21 22 23 24 25 26 27 27 28 29 29 30 30 30 30 30 30 31 31 31 32 32 32 33 33 33 34 34 35 36 36 37 37 37 36 35 35 35 35 35 36 36 36 36 35 35 36 35 34 33 33 34 35 35 36 36
19 19 19 19 18 18 18 19 19 20 20 19 19 19 19 20 21 22 23 24 25 26 27 27 28 28 28 28 29 29 30 30 31 31 32 32 33 33 33 33 34 35 36 36 37 37 37 37 35 34 34 35 36 36 36 36 35 35 35 36 35 34 33 33 34 34 34 34 35
20 20 20 20 19 19 19 19 20 20 20 20 20 20 20 20 20 21 21 22 23 24 24 24 25 26 26 27 28 28 29 29 30 31 31 32 32 33 33 33 34 34 35 36 36 37 37 36 35 34 34 34 35 37 37 37 35 35 34 34 34 34 34 34 34 34 33 33 34
20 20 20 20 20 19 19 19 19 19 20 20 20 21 21 21 21 20 21 21 22 22 22 22 23 24 25 25 26 27 28 29 29 30 31 31 32 32 32 33 33 34 34 35 36 36 36 36 34 34 34 34 35 36 37 37 35 34 34 33 33 33 33 34 34 34 33 33 33
20 20 20 20 19 19 19 19 19 19 19 19 20 20 21 21 20 20 20 21 21 21 21 21 21 22 23 24 25 26 27 27 28 29 29 30 31 31 32 32 33 33 34 34 35 35 35 35 34 34 33 33 34 35 37 36 35 35 34 34 33 33 33 34 34 34 33 34 35
21 21 20 19 19 18 18 18 18 18 18 18 18 19 19 19 19 19 20 20 20 20 20 20 20 21 21 22 23 24 25 26 27 27 28 29 30 30 31 32 32 33 33 33 34 34 34 34 34 34 34 33 33 34 35 36 36 36 36 36 35 34 34 34 35 34 34 35 36
21 21 20 19 18 18 17 17 17 17 17 17 17 17 17 17 17 17 17 18 18 18 18 19 19 20 20 21 22 23 24 25 25 26 27 28 29 29 30 31 31 32 32 32 33 33 33 33 33 34 35 35 35 35 35 35 35 36 37 37 36 35 34 34 34 34 35 35 36
22 21 20 19 18 17 16 16 15 15 15 15 14 14 14 14 15 15 15 16 16 16 16 17 17 18 19 20 21 22 23 24 24 25 26 27 28 29 29 30 31 31 32 32 32 32 32 32 33 34 35 36 36 37 36 36 35 36 37 37 35 35 35 34 34 34 34 35 36
23 22 20 19 18 17 16 15 15 14 14 14 13 13 12 13 13 13 14 14 15 15 15 15 16 18 19 19 20 21 22 23 24 24 25 26 27 28 29 29 30 31 31 31 31 30 30 31 32 34 36 37 37 37 37 36 36 36 37 37 36 36 36 36 35 34 34 34 35
23 22 21 19 18 17 16 15 15 14 14 13 13 12 12 12 12 13 13 14 15 15 14 15 16 17 18 19 19 20 21 22 22 23 24 25 26 27 28 29 30 30 31 31 31 30 30 31 33 34 36 37 37 36 37 37 37 37 37 38 37 37 37 37 37 36 35 34 35
24 22 21 20 18 17 17 16 15 15 14 14 14 13 13 13 13 13 14 15 15 15 15 15 16 17 17 18 18 19 20 20 21 22 23 24 25 26 27 28 29 30 30 31 31 31 31 32 33 35 36 37 37 37 37 37 37 38 38 38 37 37 38 39 39 37 36 35 35
25 23 22 21 19 18 18 17 17 16 16 16 15 15 15 14 14 15 15 16 16 16 16 16 17 17 18 18 19 19 19 20 21 22 22 23 24 25 26 27 28 29 30 30 31 31 32 33 34 35 36 37 38 38 38 38 38 38 39 38 38 38 39 40 40 39 37 37 36
26 25 23 22 21 20 20 19 19 18 18 18 17 17 17 17 16 17 17 18 18 18 18 18 18 18 18 19 20 20 21 21 22 22 23 24 25 25 26 27 27 28 29 30 30 31 32 33 35 35 36 37 38 38 38 39 39 39 40 40 40 40 40 41 40 39 38 38 37
28 27 25 24 23 23 22 22 21 20 20 20 19 19 19 19 19 19 19 20 20 20 20 20 20 20 20 20 21 22 22 23 23 24 25 25 26 26 26 27 28 28 28 29 30 31 32 33 34 35 36 37 38 38 39 39 39 40 41 41 41 42 42 42 41 40 39 39 38
31 29 28 27 26 25 25 24 24 23 22 22 21 21 21 21 21 21 21 22 22 22 22 21 21 21 21 22 22 22 23 24 25 25 26 27 27 28 28 28 28 28 29 29 30 31 32 33 34 34 35 36 37 38 39 39 39 40 41 42 42 42 42 42 41 40 40 39 39
34 33 31 29 29 28 28 27 26 25 25 24 23 23 23 23 23 23 23 23 23 23 23 23 22 22 23 23 23 23 24 25 26 26 27 28 28 29 29 29 29 29 29 30 30 31 32 33 33 34 34 35 36 37 38 39 39 40 41 41 42 43 43 43 42 41 40 39 39
37 36 35 33 32 32 31 30 29 28 27 26 26 25 25 25 25 25 25 25 25 25 25 25 25 24 24 24 24 24 25 25 26 27 28 28 29 29 30 30 30 30 30 31 31 32 32 33 33 34 34 35 36 37 38 38 39 40 40 41 41 42 43 43 43 42 41 41 41
37 38 38 38 36 35 34 33 32 31 30 29 28 28 28 28 28 28 28 28 27 27 28 29 29 28 27 27 26 26 26 26 27 28 28 28 29 29 30 30 31 31 31 31 32 32 33 33 34 34 35 35 36 37 38 38 39 39 40 40 41 41 42 42 42 43 43 43 43
34 36 38 39 39 39 38 37 35 33 32 31 30 30 31 31 31 31 31 31 30 30 31 31 32 32 31 31 30 29 29 28 28 28 29 29 29 29 30 30 31 31 31 32 32 32 33 33 34 34 35 35 36 37 38 38 38 38 39 39 39 40 41 41 42 42 43 43 43
34 34 36 37 39 40 41 39 38 36 34 33 32 32 32 33 33 33 33 33 32 33 33 33 34 34 35 34 34 33 33 32 31 30 30 29 29 29 29 29 30 31 32 32 32 32 33 33 34 34 35 35 36 37 38 38 38 38 38 38 39 39 40 40 40 41 42 43 43
34 34 35 35 37 39 40 41 40 38 37 35 35 34 34 35 35 35 35 35 35 35 35 35 35 36 36 36 36 36 36 35 35 33 32 31 30 30 29 29 29 31 32 32 32 32 32 33 33 33 34 35 36 37 37 37 37 37 37 37 38 38 39 39 40 40 41 42 42
34 34 34 35 35 37 38 40 41 41 40 39 38 38 38 38 38 38 38 38 38 38 38 38 38 37 37 37 37 37 37 37 37 36 35 33 31 30 29 29 29 30 31 31 31 31 31 31 31 32 32 33 34 35 35 36 36 36 36 36 37 37 37 38 38 39 40 41 41
33 34 34 34 35 35 36 38 40 41 42 42 42 41 41 41 41 41 41 41 41 41 41 41 40 39 38 38 38 38 38 38 38 38 36 34 32 30 30 29 30 30 31 31 31 30 29 28 28 29 30 31 32 33 34 34 35 35 36 36 36 36 35 35 36 36 38 39 40
32 32 33 33 34 34 35 36 37 39 41 42 43 43 43 42 42 41 41 41 42 42 41 40 40 39 38 38 38 38 38 38 38 37 36 34 32 31 30 30 30 31 31 31 31 30 28 27 26 26 27 29 30 31 33 34 35 35 35 36 35 35 34 34 34 34 36 37 38
31 32 32 32 33 33 34 35 36 37 38 40 41 42 42 42 41 41 41 41 41 41 40 39 39 38 37 37 36 37 37 37 37 36 35 33 32 31 31 31 31 31 32 31 30 29 28 27 26 26 27 28 30 31 31 32 34 35 35 35 35 34 34 33 33 33 34 34 36
31 31 31 32 32 33 33 34 34 35 36 37 38 39 40 40 40 40 40 40 40 39 38 38 37 36 35 35 35 36 37 36 36 35 34 33 32 32 31 31 31 32 32 31 30 29 28 27 27 27 27 28 29 31 32 32 32 33 33 33 34 34 34 34 33 33 32 32 33
30 31 31 31 32 32 33 33 33 34 34 35 36 37 38 38 39 39 39 39 39 38 36 36 35 34 34 34 35 35 35 35 35 34 34 33 33 32 32 31 32 32 32 31 30 28 28 27 27 27 28 28 28 29 29 29 29 29 29 30 31 32 33 33 33 32 32 31 31
30 31 31 31 32 32 33 33 33 33 34 34 35 35 36 36 37 37 38 37 37 36 35 34 34 33 33 34 34 34 34 34 34 34 34 34 33 33 32 32 32 32 32 31 30 29 28 28 28 28 28 28 28 29 29 29 29 28 28 28 29 30 32 32 33 33 32 31 31
31 31 32 32 32 33 33 34 34 34 34 34 34 34 35 35 36 36 36 36 36 36 36 35 34 34 34 34 34 34 34 35 35 35 35 34 33 33 32 32 32 33 33 31 30 29 29 28 29 29 29 29 28 28 29 30 30 30 29 28 28 29 30 31 32 32 32 32 31
32 32 32 32 33 34 34 34 34 34 34 34 34 34 34 35 35 36 36 36 35 36 36 35 35 35 35 34 34 34 34 35 35 35 34 33 33 32 32 32 33 33 33 32 30 29 29 29 29 29 29 29 29 30 30 31 31 31 31 30 30 30 30 31 31 32 32 33 32
32 32 32 33 33 34 35 35 35 34 34 34 34 34 34 34 35 35 35 35 34 34 34 34 33 33 33 33 33 33 33 33 33 33 33 32 31 31 32 32 33 33 32 31 30 29 29 29 28 29 29 30 31 31 32 31 31 30 30 30 30 30 30 31 31 32 32 33 33
32 32 32 32 33 34 34 35 35 34 34 34 34 34 33 33 34 34 34 34 33 32 32 32 32 32 32 33 32 33 33 32 32 32 32 32 31 31 32 32 33 33 32 31 30 29 29 29 29 29 30 31 31 32 32 31 31 30 30 30 31 30 30 30 31 32 32 33 32
31 31 31 31 32 33 34 34 34 34 33 33 33 34 34 33 33 33 33 33 32 32 32 32 32 32 32 32 32 32 33 33 32 32 32 32 31 31 32 33 34 34 33 32 31 30 29 30 30 30 30 30 31 31 30 30 30 30 30 30 30 30 30 30 30 31 32 32 32
30 30 30 31 31 32 32 33 33 33 32 32 33 33 34 34 33 33 33 32 32 32 32 32 33 33 32 32 32 32 31 31 31 31 31 31 31 31 32 33 35 35 34 32 31 30 29 29 29 29 29 29 29 29 29 29 28 29 29 30 30 30 30 29 30 30 31 32 32
30 29 30 30 31 31 32 32 32 32 32 32 33 33 34 34 34 33 33 32 31 31 32 32 32 32 32 32 31 31 30 30 30 30 30 31 31 31 32 33 35 35 35 33 31 30 29 29 29 29 29 29 28 28 28 28 27 27 28 28 29 30 29 28 29 29 30 31 32
30 30 30 30 30 31 31 31 31 31 32 32 33 33 33 33 33 33 32 31 30 30 31 32 32 32 32 32 31 31 30 30 30 30 31 31 32 32 33 33 34 35 34 32 30 29 29 28 29 29 28 28 28 28 27 26 26 26 26 26 27 27 27 27 27 27 28 29 30
30 30 30 30 30 30 31 31 31 31 31 32 33 33 32 32 32 32 32 31 30 30 31 31 32 32 32 32 31 30 30 30 30 30 31 32 33 33 32 32 33 34 33 32 30 29 29 28 29 29 28 28 27 27 26 25 25 26 26 26 25 25 25 26 25 25 26 27 28
31 30 30 29 29 30 30 30 31 31 31 31 31 32 32 32 32 32 32 31 31 31 31 31 32 32 32 31 29 29 30 31 31 32 32 33 33 32 32 31 32 32 33 32 31 30 29 29 29 28 28 27 27 26 26 25 25 25 26 25 24 23 23 23 24 24 24 26 27
31 30 30 30 30 29 30 30 31 31 31 30 31 31 31 31 31 32 32 32 32 32 31 31 31 31 31 30 29 29 30 31 33 33 33 33 32 31 30 30 31 32 33 33 32 31 30 29 28 27 27 26 26 26 25 24 24 24 25 24 24 23 22 22 22 22 23 24 26
Wind_Direction
308 306 303 299 294 289 285 283 282 280 278 277 276 277 277 276 274 275 276 275 274 275 276 278 279 280 281 281 279 278 277 276 274 272 270 267 266 265 264 263 261 259 257 256 255 253 251 249 246 244 243 244 244 244 244 243 242 241 239 239 238 238 238 238 238 238 237 237 236
307 305 303 301 298 295 292 290 289 286 284 283 282 282 281 279 277 277 278 278 278 279 280 281 282 283 283 283 282 280 279 277 276 274 272 270 269 268 266 264 262 261 259 257 255 253 251 249 246 244 243 243 243 243 244 244 243 241 240 240 239 239 239 238 239 239 239 238 238
308 305 302 300 297 295 294 293 292 291 290 289 289 287 285 283 281 280 280 282 283 283 282 282 284 285 285 285 285 283 281 279 278 276 274 272 271 269 267 265 263 262 260 259 256 254 251 249 246 244 243 243 243 243 244 244 243 242 240 240 240 239 238 238 239 239 239 238 238
308 306 302 299 296 294 292 291 291 291 292 292 291 290 288 287 285 284 285 287 286 284 283 284 286 287 287 287 286 285 283 282 280 277 276 274 273 271 269 266 264 262 261 259 257 255 253 250 246 244 243 243 243 243 244 244 243 242 241 241 240 239 238 238 239 239 238 238 237
307 305 302 299 297 295 293 291 290 290 289 289 289 288 287 287 287 288 288 288 286 286 287 288 288 288 288 287 286 286 285 283 281 278 277 276 275 274 271 268 265 263 262 260 258 256 253 250 246 244 243 243 243 244 245 245 243 242 241 241 240 239 238 238 239 239 238 238 238
305 303 301 298 296 294 293 291 290 289 288 287 286 285 285 285 286 286 286 286 286 288 289 289 289 288 288 288 287 287 286 284 282 280 278 277 277 276 274 271 268 266 263 261 259 257 254 250 247 244 244 244 244 245 246 245 244 242 241 241 240 239 238 238 239 238 238 238 237
304 301 298 295 293 291 290 289 288 287 286 285 284 283 283 284 284 284 284 284 285 285 287 287 288 288 288 288 288 287 286 285 284 282 280 279 278 277 276 273 271 269 266 263 260 257 254 251 247 245 245 244 245 246 246 245 243 242 241 240 240 240 239 238 239 238 237 237 237
301 299 296 292 289 287 286 286 285 285 284 283 282 282 282 282 282 282 282 282 282 283 284 285 285 286 287 287 287 287 286 286 285 284 282 281 280 279 278 276 273 271 268 266 262 258 255 251 248 246 245 245 245 246 246 245 243 242 241 240 241 240 240 239 239 238 237 237 237
298 296 293 289 285 283 281 281 281 281 280 280 280 280 281 281 281 281 281 282 282 282 282 283 284 285 286 286 286 286 286 286 286 285 284 283 282 281 279 277 275 272 271 268 264 260 257 253 249 248 247 246 246 246 246 245 243 242 241 241 241 241 240 240 239 239 238 237 237
295 293 289 284 280 277 275 275 274 274 274 274 274 275 275 276 277 278 280 280 280 280 281 282 284 285 285 285 285 286 286 287 287 287 286 285 284 282 281 279 277 275 273 271 268 263 259 255 251 250 249 248 247 247 247 246 244 243 242 242 242 241 241 240 240 239 238 237 237
292 289 285 280 275 272 270 268 267 267 266 266 267 267 267 269 272 274 275 275 275 277 279 282 284 285 285 285 285 286 287 287 288 288 288 287 286 285 283 282 280 278 276 274 271 266 261 257 254 252 252 251 250 249 248 247 245 243 243 243 242 242 241 241 240 239 238 237 237
288 285 280 275 270 266 264 262 261 260 259 259 260 260 261 262 266 268 270 270 272 274 277 280 282 283 284 284 285 286 287 288 289 289 288 288 287 287 286 285 283 281 279 277 273 268 263 259 257 255 254 253 252 250 249 247 245 244 244 244 243 242 242 241 240 239 238 238 238
284 280 275 269 264 260 257 256 256 255 255 255 256 257 259 260 262 265 267 269 271 273 276 278 280 282 283 285 286 288 289 290 290 290 289 289 288 288 287 286 285 283 281 279 275 270 265 262 260 258 257 256 254 252 250 248 247 245 245 244 243 243 242 242 242 241 239 238 238
281 276 270 264 258 254 252 252 253 253 254 256 257 259 260 261 262 264 267 269 271 274 276 278 280 282 284 286 288 289 290 291 291 290 290 290 290 289 288 287 286 285 283 281 277 273 269 265 263 261 260 258 256 255 253 251 248 247 246 245 244 243 243 243 243 242 240 239 238
278 273 268 261 255 252 251 251 252 254 255 257 259 261 262 263 264 265 268 270 272 274 277 279 281 283 285 287 289 290 291 291 291 291 291 291 291 291 290 289 288 287 285 283 280 276 272 269 267 265 262 261 259 258 256 253 251 249 248 247 246 245 245 245 244 243 241 240 239
277 273 267 260 254 252 252 253 254 255 256 258 261 263 264 265 266 267 269 271 273 275 277 279 282 284 286 287 288 290 291 291 291 291 291 292 292 292 292 291 290 289 287 285 283 280 277 274 271 268 265 263 262 260 258 256 253 251 250 249 248 247 247 246 245 244 242 241 240
278 274 268 262 257 255 254 255 256 257 258 259 261 263 265 266 268 269 271 273 275 276 278 280 282 285 286 288 289 290 291 291 291 292 292 292 293 293 293 292 292 291 289 287 285 282 280 278 275 272 269 266 264 262 260 258 256 254 252 251 250 249 248 247 246 245 243 242 241
280 277 272 266 262 259 258 258 258 258 259 260 262 263 265 267 269 270 272 273 275 278 279 281 283 284 286 287 289 290 290 291 291 292 292 293 293 293 293 293 293 292 290 288 286 284 282 280 278 275 272 269 266 265 263 260 258 256 255 253 252 251 250 249 247 246 244 243 242
282 280 277 272 268 265 263 262 261 261 261 262 263 265 266 267 269 271 272 274 276 278 280 282 283 284 284 286 287 289 289 290 291 292 293 293 294 293 293 293 293 292 290 288 286 285 283 281 279 277 274 271 269 267 265 262 260 258 257 255 254 252 251 250 249 247 245 244 243
287 284 282 279 276 272 269 267 265 264 264 265 266 267 268 269 271 272 273 274 276 278 280 282 283 283 283 284 285 286 287 289 290 291 292 293 293 293 293 293 292 291 290 288 287 285 284 282 280 278 275 273 271 269 267 264 262 260 258 257 255 254 252 251 250 249 247 246 245
297 292 288 286 284 280 275 272 270 268 267 267 268 269 271 272 273 274 275 276 278 280 281 282 283 283 282 283 283 283 285 286 288 289 291 292 293 293 293 293 292 291 290 288 287 286 284 283 281 279 277 274 272 270 268 266 263 261 260 258 257 255 254 253 251 250 248 247 246
306 302 298 294 291 287 282 278 274 272 271 270 270 271 273 274 275 276 277 279 280 281 283 283 284 284 284 283 283 282 283 284 285 286 288 290 292 293 294 293 291 290 289 288 287 286 286 284 282 280 277 275 272 271 269 267 265 263 261 259 258 257 256 254 252 251 250 248 247
312 310 306 302 297 292 287 283 279 276 274 273 273 274 274 276 277 278 279 281 282 283 284 285 286 286 286 286 285 284 283 283 283 284 285 288 291 293 294 293 291 289 288 287 287 286 286 285 284 282 279 276 273 272 270 268 266 264 262 261 259 258 257 255 254 252 251 250 248
315 313 311 308 303 299 293 288 284 281 279 279 279 279 279 279 279 280 281 282 283 284 285 286 287 289 290 290 290 289 287 284 282 282 283 285 288 292 294 294 291 289 287 287 287 286 285 284 283 282 280 278 275 273 271 269 267 264 263 261 260 259 257 256 255 253 252 250 249
316 315 313 311 309 305 300 295 291 287 285 284 284 284 284 284 284 284 284 285 286 286 287 288 289 291 292 293 294 293 290 287 284 282 281 284 287 290 293 293 291 289 288 287 287 286 284 282 280 279 278 277 276 274 273 270 268 265 263 261 260 259 258 256 255 253 252 251 249
316 315 314 313 312 309 305 301 297 294 291 289 289 288 288 289 289 288 288 288 289 289 290 291 291 293 294 294 295 294 292 288 285 282 281 282 286 289 291 291 290 289 288 287 286 285 283 280 277 275 274 274 273 272 270 269 267 265 263 261 259 257 255 254 254 253 252 251 250
316 315 314 315 313 310 307 305 302 299 296 294 292 291 291 292 292 291 291 290 291 291 292 293 293 294 295 294 293 292 290 288 285 283 281 282 284 287 289 290 289 289 289 288 286 284 282 280 278 275 273 272 272 270 268 266 265 263 261 258 256 254 252 252 252 252 251 250 250
318 317 316 315 313 310 309 308 305 302 300 298 296 295 294 294 293 292 291 291 291 292 292 293 294 295 295 294 292 291 290 288 286 283 282 282 283 284 286 288 289 289 289 288 285 283 282 280 279 278 276 274 273 272 271 268 265 262 258 255 252 251 250 249 250 250 250 249 248
322 320 319 316 313 312 310 308 305 304 302 301 300 298 296 295 294 293 292 292 291 291 291 293 294 294 294 292 291 291 290 288 286 284 282 281 281 282 284 286 288 289 289 287 284 282 281 280 279 278 278 277 275 274 272 270 267 262 257 253 250 248 247 247 248 248 248 248 247
325 323 320 317 315 313 311 309 307 306 305 303 301 299 297 296 294 293 292 291 290 290 291 291 292 291 290 290 290 290 289 288 287 284 281 279 278 280 283 285 287 288 288 286 283 282 281 280 280 280 279 277 276 274 273 271 269 265 261 255 250 247 245 244 245 245 246 246 247
325 323 321 318 316 314 312 311 310 309 307 304 302 300 298 296 294 293 292 291 291 291 292 291 289 288 287 288 288 287 288 288 286 283 279 276 276 279 282 285 287 288 288 286 283 282 281 281 281 280 280 279 277 275 273 271 270 267 264 259 254 249 245 243 243 243 244 245 246
324 322 320 318 315 314 313 313 311 309 307 305 302 299 297 295 294 294 293 292 292 291 291 291 289 287 286 286 286 286 285 285 283 281 278 276 276 279 283 285 287 288 287 286 283 282 282 282 281 280 280 281 279 277 274 272 270 267 265 262 259 254 249 245 244 243 243 244 243
322 320 319 316 315 314 313 312 311 309 307 304 302 299 297 296 295 295 294 293 292 291 290 289 288 286 285 285 285 285 284 283 281 279 278 276 277 279 282 285 286 286 286 284 283 282 282 282 281 281 282 283 282 280 277 274 270 267 264 262 260 257 252 247 244 242 242 242 242
320 318 317 315 314 313 312 311 310 308 306 304 301 299 298 296 295 294 294 294 293 292 290 289 287 286 285 285 285 284 283 282 280 278 276 277 278 280 283 285 285 286 285 284 283 282 283 282 282 282 283 284 283 281 279 276 273 269 265 262 261 258 254 251 247 244 243 243 242
318 317 315 314 313 312 311 310 309 307 305 302 301 300 299 297 295 295 294 295 294 293 291 290 288 287 286 285 284 283 282 280 279 278 278 279 281 283 284 285 286 286 286 284 283 283 283 284 284 284 284 284 283 281 279 276 274 270 267 264 261 259 256 253 250 247 246 245 243
316 315 314 313 312 311 310 309 308 306 304 302 301 300 299 299 298 297 296 296 296 294 292 291 290 289 287 286 285 283 281 280 279 280 281 282 284 284 285 285 286 286 286 285 284 284 284 285 285 285 285 285 283 280 278 276 273 270 267 265 262 259 257 254 251 249 247 246 245
315 314 313 312 311 310 309 308 307 305 304 302 301 301 300 300 299 299 299 298 297 295 294 293 292 291 289 288 286 285 284 282 281 281 282 284 285 285 285 284 285 286 286 285 285 285 285 286 286 287 287 286 283 281 278 276 272 269 267 264 261 259 256 253 252 250 248 247 245
314 314 313 312 311 310 309 308 307 305 304 303 302 302 301 301 300 300 300 299 297 296 295 294 293 292 291 290 289 287 286 285 284 283 284 286 286 285 285 284 284 285 286 286 286 286 286 287 288 288 287 286 284 282 280 277 273 269 266 262 260 257 255 253 251 249 248 247 246
313 313 312 311 310 309 308 307 306 305 304 303 303 303 302 302 301 301 300 300 298 296 295 293 292 292 292 291 289 288 287 286 286 286 286 286 286 286 284 283 283 284 285 286 286 287 287 288 288 289 288 286 285 283 281 279 275 271 267 264 260 257 254 252 249 247 247 247 247
313 312 312 310 309 308 308 306 305 305 304 304 303 303 302 302 302 301 301 300 299 297 295 294 293 292 292 291 289 288 287 288 288 287 287 286 286 285 284 282 282 284 285 287 287 288 288 289 289 289 288 287 285 284 282 279 276 272 269 265 260 256 253 250 247 246 246 246 247
312 312 311 310 309 308 307 306 305 305 305 304 303 303 303 303 302 302 302 301 300 299 297 295 294 293 292 291 289 288 288 288 288 288 287 286 285 285 283 282 283 284 286 288 289 289 290 290 289 289 288 287 286 284 282 279 275 272 268 264 260 256 253 251 248 246 245 245 245